Location: Maccacari
(45.1333°N, 11.1333°E)
Time: 01:25:48
(UTC+00:00)

Vanguard 2 - Pass Details

Date: 22 January 2021
Orbit: 552 x 2938 km, 32.9° (Epoch: 05 March)

Event Time Altitude Azimuth Distance (km) Brightness Sun altitude
Rises 20:21:17 0° 255° (WSW) 3,323 11.4 -44.0°
Enters shadow 20:23:57 10° 239° (WSW) 2,671 10.6 -44.4°
Reaches altitude 10° 20:24:03 10° 238° (WSW) 2,651 - -44.4°
Maximum altitude 20:28:40 21° 192° (SSW) 2,420 - -45.2°
Drops below altitude 10° 20:34:57 10° 149° (SSE) 3,777 - -46.2°
Sets 20:39:58 0° 136° (SE) 5,260 - -47.1°
